Tracking 32139 objects as of 16-Nov-2025
HD Live streaming from Space Station
objects crossing your sky now

STARLINK-35024

Track STARLINK-35024 now!
10-day predictions
STARLINK-35024 is classified as:


NORAD ID: 65410
Int'l Code: 2025-192G
Perigee: 452.6 km
Apogee: 455.9 km
Inclination: 53.2 °
Period: 93.5 minutes
Semi major axis: 6825 km
RCS: Unknown
Launch date: August 31, 2025
Source: United States (US)
Launch site: AIR FORCE EASTERN TEST RANGE (AFETR)
Your satellite tracking list
Your tracking list is empty




NASA's NSSDC Master Catalog

Two Line Element Set (TLE):
1 65410U 25192G   25318.69032292  .00051200  00000-0  12798-2 0  9994
2 65410  53.1606  53.8823 0002427  48.9225 311.1989 15.39657332 11674
Source of the keplerian elements: AFSPC